Location: Newark
(41.9364°N, 2.8061°E)
Time: 19:49:17
(UTC+00:00)

Explorer 7 - Visible Passes

Search period start: 16 February 2020 00:00
Search period end: 26 February 2020 00:00
Orbit: 485 x 679 km, 50.3° (Epoch: 16 February)

Date Brightness Start Highest point End Pass type
(mag) Time Alt. Az. Time Alt. Az. Time Alt. Az.
16 Feb 7.2 19:24:54 10° NW 19:28:05 53° NW 19:28:05 53° NW visible
17 Feb 7.8 17:49:17 10° NW 17:52:59 32° NNE 17:56:31 10° E visible
17 Feb 7.2 19:29:49 10° WNW 19:33:07 57° W 19:33:07 57° W visible
18 Feb 7.4 17:54:12 10° NW 17:58:04 40° NNE 18:01:45 10° E visible
18 Feb 7.7 19:34:51 10° WNW 19:38:15 42° WSW 19:38:15 42° WSW visible
19 Feb 6.9 17:59:05 10° NW 18:03:06 56° NNE 18:06:55 10° ESE visible
19 Feb 8.4 19:40:03 10° WNW 19:43:22 26° SW 19:43:30 26° SW visible
20 Feb 6.7 18:03:59 10° WNW 18:08:04 83° NNE 18:11:56 10° ESE visible
20 Feb 9.1 19:45:39 10° W 19:48:03 16° SW 19:48:54 15° SSW visible
21 Feb 7.2 18:08:56 10° WNW 18:12:58 62° SW 18:16:46 10° SE visible
22 Feb 8.1 18:14:00 10° WNW 18:17:46 37° SW 18:21:21 10° SSE visible
23 Feb 9.1 18:19:16 10° W 18:22:30 23° SW 18:25:35 10° S visible
24 Feb 9.6 18:25:04 10° W 18:27:08 14° SW 18:29:11 10° SSW visible
